User: anonymous   Login
Location: NJAA Observatory
(40.6819°N, 74.8979°W)
Time: 06:34:46
(UTC-04:00)
Language:

Meteor 2-9 Rocket - Orbit

View from above orbital plane
View from above orbital plane
View from above satellite
View from above satellite

Ground track
Ground track

The orbit data is extracted from the following two-line orbital elements,

1 13719U 82116B   17113.89906625 +.00000031 +00000-0 +87259-5 0  9997
2 13719 081.2563 053.5487 0072192 146.8599 244.6828 14.14602110772698
Epoch (UTC): 23 April 2017 21:34:39
Eccentricity: 0.0072192
inclination: 81.2563°
perigee height: 791 km
apogee height: 896 km
right ascension of ascending node: 53.5487°
argument of perigee: 146.8599°
revolutions per day: 14.14602110
mean anomaly at epoch: 244.6828°
orbit number at epoch: 77269

The dashed part of the orbit path shows where the satellite is in the earth's shadow,  

DLR